Tracking 18785 objects as of 20-August-2017
HD Live streaming from Space Station
objects crossing your sky now

USA 122

Track USA 122 now!
10-day predictions
USA 122 is classified as:


NORAD ID: 23862
Int'l Code: 1996-029D
Perigee: 656.8 km
Apogee: 1,569.9 km
Inclination: 63.4 °
Period: 107.4 minutes
Semi major axis: 7484 km
RCS: Unknown
Launch date: May 12, 1996
Source: United States (US)
Launch site: AIR FORCE WESTERN TEST RANGE (AFWTR)
Your satellite tracking list
Your tracking list is empty





NASA's NSSDC Master Catalog

Two Line Element Set (TLE):
1 23862U 96029D   17227.88501658 0.00000000  00000-0  00000-0 0    00
2 23862  63.3774 260.7898 0610000  13.7355 346.2645 13.40817319    01
Source of the keplerian elements: McCants